Simultaneous Nadir Overpasses (SNOs) Predictions

Prediction of SNOs between FY3D and TERRA Satellite Orbit:

Table of predicted SNOs for the next 14.0 days since TLE Epoch: 2/3/2024
Index Date (FY3D) Time (FY3D) Lat,Lon (FY3D) SZA (FY3D ) Date (TERRA) Time (TERRA) Lat,Lon (TERRA) SZA (TERRA ) Distance(km) Time Diff (sec)
1 02/03/2024 12:47:50 74.92, -11.91 91.44 02/03/2024 12:48:17 74.89, -11.92 91.40 3.55 27
2 02/03/2024 13:38:34 -74.86, 155.56 88.64 02/03/2024 13:37:41 -74.83, 155.60 88.67 3.31 53
3 02/06/2024 00:00:56 74.93, 179.81 90.71 02/06/2024 00:02:07 74.93, 179.69 90.70 3.43 71
4 02/06/2024 00:51:40 -74.87, -12.70 89.37 02/06/2024 00:51:31 -74.88, -12.77 89.36 2.23 9
5 02/08/2024 12:04:47 -74.94, 178.88 90.06 02/08/2024 12:05:20 -74.96, 178.93 90.05 2.88 33
6 02/08/2024 12:55:31 74.86, -13.58 89.85 02/08/2024 12:54:42 74.85, -13.67 89.84 2.75 49
7 02/10/2024 23:17:57 -75.15, 10.01 90.63 02/10/2024 23:19:08 -75.07, 10.72 90.73 22.30 71
8 02/11/2024 00:08:38 74.93, 177.98 89.13 02/11/2024 00:08:31 74.90, 177.97 89.10 3.29 7
9 02/11/2024 00:59:11 -74.34, -13.07 91.50 02/11/2024 00:58:04 -74.41, -15.59 91.39 75.72 67
10 02/13/2024 11:21:44 74.97, 9.65 88.35 02/13/2024 11:22:19 74.98, 9.68 88.36 2.08 35
11 02/13/2024 12:12:28 -74.90, 177.15 91.73 02/13/2024 12:11:44 -74.90, 177.13 91.73 0.78 44
12 02/15/2024 22:34:55 75.24,-159.41 87.80 02/15/2024 22:36:06 75.09,-158.52 87.63 30.25 71
13 02/15/2024 23:25:34 -74.94, 8.81 92.53 02/15/2024 23:25:32 -74.96, 8.80 92.51 2.52 2



Historial Predications of SNOs between FY3D and TERRA
